TimeEDT,TemperatureF,Dew PointF,Humidity,Sea Level PressureIn,VisibilityMPH,Wind Direction,Wind SpeedMPH,Gust SpeedMPH,PrecipitationIn,Events,Conditions,WindDirDegrees,DateUTC
12:53 AM,39.9,39.0,97,30.17,9.0,West,3.5,-,N/A,,Clear,280,2013-10-27 04:53:00
1:53 AM,39.9,39.9,100,30.16,6.0,Calm,Calm,-,N/A,,Clear,0,2013-10-27 05:53:00
2:53 AM,39.0,37.9,96,30.14,5.0,Calm,Calm,-,N/A,,Clear,0,2013-10-27 06:53:00
3:53 AM,37.9,37.9,100,30.13,6.0,SSW,3.5,-,N/A,,Clear,210,2013-10-27 07:53:00
4:53 AM,37.9,37.9,100,30.12,6.0,Calm,Calm,-,N/A,,Clear,0,2013-10-27 08:53:00
5:53 AM,37.9,37.9,100,30.13,6.0,Calm,Calm,-,N/A,,Clear,0,2013-10-27 09:53:00
6:53 AM,37.9,37.9,100,30.14,7.0,Calm,Calm,-,N/A,,Clear,0,2013-10-27 10:53:00
7:53 AM,37.9,37.0,97,30.15,6.0,Calm,Calm,-,N/A,,Clear,0,2013-10-27 11:53:00
8:53 AM,42.1,41.0,96,30.18,6.0,Calm,Calm,-,N/A,,Clear,0,2013-10-27 12:53:00
9:53 AM,52.0,42.1,69,30.19,10.0,Calm,Calm,-,N/A,,Clear,0,2013-10-27 13:53:00
10:53 AM,61.0,41.0,48,30.18,10.0,NW,4.6,-,N/A,,Clear,310,2013-10-27 14:53:00
11:53 AM,66.0,43.0,43,30.18,10.0,WNW,4.6,-,N/A,,Clear,290,2013-10-27 15:53:00
12:53 PM,69.1,44.1,40,30.16,10.0,Variable,3.5,-,N/A,,Clear,0,2013-10-27 16:53:00
1:53 PM,71.1,46.0,41,30.13,10.0,Calm,Calm,-,N/A,,Clear,0,2013-10-27 17:53:00
2:53 PM,73.0,48.0,41,30.11,10.0,WNW,4.6,-,N/A,,Clear,300,2013-10-27 18:53:00
3:53 PM,73.9,48.9,41,30.10,10.0,Variable,5.8,-,N/A,,Clear,0,2013-10-27 19:53:00
4:53 PM,73.0,50.0,44,30.10,10.0,Calm,Calm,-,N/A,,Partly Cloudy,0,2013-10-27 20:53:00
5:53 PM,70.0,51.1,51,30.11,10.0,Calm,Calm,-,N/A,,Overcast,0,2013-10-27 21:53:00
6:53 PM,66.0,53.1,63,30.11,10.0,Calm,Calm,-,N/A,,Clear,0,2013-10-27 22:53:00
7:53 PM,60.1,54.0,80,30.12,10.0,Calm,Calm,-,N/A,,Scattered Clouds,0,2013-10-27 23:53:00
8:53 PM,57.9,54.0,87,30.13,10.0,Calm,Calm,-,N/A,,Mostly Cloudy,0,2013-10-28 00:53:00
9:53 PM,57.0,54.0,89,30.15,10.0,Calm,Calm,-,N/A,,Scattered Clouds,0,2013-10-28 01:53:00
10:53 PM,55.9,53.1,90,30.15,10.0,Calm,Calm,-,N/A,,Clear,0,2013-10-28 02:53:00
11:53 PM,57.0,54.0,89,30.15,8.0,Calm,Calm,-,N/A,,Clear,0,2013-10-28 03:53:00